User: anonymous   Login
Location: Unspecified
(0.0000°N, 0.0000°E)
Time: 07:04:29
(UTC+00:00)
Language:

Cubesat XI-IV - Orbit

View from above orbital plane
View from above orbital plane
View from above satellite
View from above satellite

Ground track
Ground track

The orbit data is extracted from the following two-line orbital elements,

1 27848U 03031J   20336.87182801  .00000084  00000-0  57820-4 0  9993
2 27848  98.6880 342.6492 0008898 307.5780  52.4588 14.21854666903730
Epoch (UTC): 01 December 2020 20:55:25
Eccentricity: 0.0008898
inclination: 98.6880°
perigee height: 812 km
apogee height: 825 km
right ascension of ascending node: 342.6492°
argument of perigee: 307.5780°
revolutions per day: 14.21854666
mean anomaly at epoch: 52.4588°
orbit number at epoch: 90373

The dashed part of the orbit path shows where the satellite is in the earth's shadow,  

DLR